Find Starlink 31369

NORAD ID: 58975 Int'l Des: 2024-031 Owner: SPXS Country: US Constellation: starlink operational
LEOCIRCULAR

当前视图

正在加载3D地球...

About Starlink 31369

Starlink 31369 (NORAD 58975) is a starlink constellation satellite (v2 mini) launched Feb 15, 2024 by SPXS of US. It operates in LEO, CIRCULAR orbit with a mass of 730.00 kg.

关于 Starlink 31369

正在加载描述...

即将过境

Passes for default location (London). Set your location on the main map for personalized predictions.

高度历史

Loading altitude history...

两行轨道根数

1 58975U 24031L 26171.30514478 -.00000213 00000-0 49176-5 0 9992
2 58975 53.1594 180.0847 0001182 80.2822 279.8312 15.30199802132225
Epoch: Jun 20, 2026 • Age: 10 hours

当前状态

高度 478.9 km
速度 7.63 km/s
星下点 44.06°N, 60.59°E
发射日期 Feb 15, 2024
运行时间 2.3 years
类型 internet

技术详情

分类 Payload
质量 730.00 kg
干质量 700.00 kg
总质量 730.00 kg
长度 0.30 m
直径 4.10 m
跨度 29.00 m
形状 Box + pan
制造商 SPXS
平台类型 Starlink V2M
阶段状态 In Orbit
所有者/国家 SPXS/US

Most Searched